Madison, MN

4:39 AM CST on February 07, 2016 (GMT -0600)
Madison-Lac Qui Parle County

Weather History for KDXX - January, 2013

Change the Weather History Date:

Thursday, January 10, 2013

  Actual Average (KAQP) Record (KAQP)
Temperature  
Mean Temperature 36 °F -  
Max Temperature 39 °F 18 °F 55 °F (2012)
Min Temperature 33 °F 2 °F -16 °F (2016)
Degree Days  
Heating Degree Days 29    
Moisture  
Dew Point 29 °F    
Average Humidity 76    
Maximum Humidity 100    
Minimum Humidity 60    
Precipitation  
Precipitation 0.28 in - - ()
Sea Level Pressure  
Sea Level Pressure 29.91 in    
Wind  
Wind Speed 19 mph (SSE)    
Max Wind Speed 26 mph    
Max Gust Speed 33 mph    
Visibility 8 miles    
Events Rain , Snow    
Averages and records for this station are not official NWS values.
T = Trace of Precipitation, MM = Missing Value Source: NWS Daily Summary

Daily Weather History Graph

Daily Weather History Graph

Search for Another Location

Airport or City:

Trip Planner

Search our weather history database for the weather conditions in past years. The results will help you decide how hot, cold, wet, or windy it might be!

Date:

Astronomy

Jan. 10, 2013 Rise Set
Actual Time 8:01 AM CST 5:03 PM CST
Civil Twilight 7:28 AM CST 5:36 PM CST
Nautical Twilight 6:51 AM CST 6:13 PM CST
Astronomical Twilight 6:16 AM CST 6:48 PM CST
Moon 6:42 AM CST (1/10) 4:13 PM CST (1/10)
Length of Visible Light 10h 08m
Length of Day
9h 02m
Waning Crescent, 2% of the Moon is Illuminated
Jan 10
Waning Crescent
Jan 11
New
Jan 18
First Quarter
Jan 26
Full
Feb 3
Last Quarter

Hourly Weather History & Observations

Time (CST) Temp. Windchill Dew Point Humidity Pressure Visibility Wind Dir Wind Speed Gust Speed Precip Events Conditions
12:13 AM 33.8 °F 23.5 °F 26.6 °F 75% 30.10 in 10.0 mi SSW 16.1 mph - N/A   Clear
12:34 AM 35.6 °F 24.5 °F 26.6 °F 70% 30.10 in 10.0 mi South 20.7 mph 24.2 mph N/A   Clear
12:54 AM 35.6 °F 24.8 °F 26.6 °F 70% 30.10 in 10.0 mi South 19.6 mph 25.3 mph N/A   Clear
1:13 AM 37.4 °F 26.9 °F 26.6 °F 65% 30.11 in 10.0 mi South 20.7 mph - N/A   Clear
1:34 AM 37.4 °F 27.5 °F 26.6 °F 65% 30.11 in 10.0 mi SSW 18.4 mph 26.5 mph N/A   Clear
1:54 AM 37.4 °F 28.2 °F 26.6 °F 65% 30.11 in 10.0 mi South 16.1 mph - N/A   Clear
2:13 AM 37.4 °F 26.6 °F 26.6 °F 65% 30.10 in 10.0 mi SSW 21.9 mph 25.3 mph N/A   Clear
2:34 AM 37.4 °F 27.2 °F 26.6 °F 65% 30.10 in 10.0 mi SSW 19.6 mph - N/A   Clear
2:54 AM 37.4 °F 26.9 °F 26.6 °F 65% 30.11 in 10.0 mi SSW 20.7 mph 25.3 mph N/A   Clear
3:13 AM 37.4 °F 26.6 °F 26.6 °F 65% 30.10 in 10.0 mi South 21.9 mph 27.6 mph N/A   Clear
3:34 AM 39.2 °F 28.7 °F 28.4 °F 65% 30.09 in 10.0 mi SSW 23.0 mph 27.6 mph N/A   Clear
3:54 AM 39.2 °F 28.5 °F 28.4 °F 65% 30.08 in 10.0 mi SSW 24.2 mph 31.1 mph N/A   Clear
4:13 AM 39.2 °F 28.0 °F 26.6 °F 61% 30.08 in 10.0 mi SSW 26.5 mph 33.4 mph N/A   Clear
4:34 AM 39.2 °F 28.7 °F 26.6 °F 61% 30.08 in 10.0 mi SSW 23.0 mph 28.8 mph N/A   Clear
4:54 AM 39.2 °F 28.3 °F 28.4 °F 65% 30.06 in 10.0 mi SSW 25.3 mph 29.9 mph N/A   Clear
5:13 AM 37.4 °F 26.1 °F 28.4 °F 70% 30.06 in 10.0 mi South 24.2 mph - N/A   Clear
5:34 AM 39.2 °F 29.0 °F 28.4 °F 65% 30.06 in 10.0 mi South 21.9 mph - N/A   Clear
5:54 AM 39.2 °F 29.6 °F 28.4 °F 65% 30.06 in 10.0 mi South 19.6 mph - N/A   Clear
6:34 AM 39.2 °F 28.7 °F 28.4 °F 65% 30.05 in 10.0 mi South 23.0 mph - N/A   Clear
6:54 AM 37.4 °F 26.6 °F 28.4 °F 70% 30.05 in 10.0 mi South 21.9 mph 27.6 mph N/A   Clear
7:13 AM 37.4 °F 26.9 °F 26.6 °F 65% 30.05 in 10.0 mi South 20.7 mph - N/A   Clear
7:34 AM 37.4 °F 27.8 °F 26.6 °F 65% 30.06 in 10.0 mi South 17.3 mph - N/A   Clear
7:54 AM 35.6 °F 25.5 °F 26.6 °F 70% 30.06 in 10.0 mi SSE 17.3 mph - N/A   Clear
8:34 AM 37.4 °F 27.2 °F 26.6 °F 65% 30.06 in 10.0 mi South 19.6 mph - N/A   Clear
8:54 AM 37.4 °F 28.5 °F 26.6 °F 65% 30.07 in 10.0 mi South 15.0 mph 18.4 mph N/A   Clear
9:13 AM 35.6 °F 26.2 °F 26.6 °F 70% 30.07 in 10.0 mi South 15.0 mph - N/A   Clear
9:34 AM 37.4 °F 28.9 °F 26.6 °F 65% 30.07 in 10.0 mi South 13.8 mph - N/A   Clear
9:54 AM 37.4 °F 27.2 °F 26.6 °F 65% 30.06 in 10.0 mi South 19.6 mph - N/A   Clear
10:14 AM 37.4 °F 26.9 °F 26.6 °F 65% 30.05 in 10.0 mi South 20.7 mph - N/A   Clear
10:34 AM 37.4 °F 26.9 °F 24.8 °F 60% 30.03 in 10.0 mi South 20.7 mph - N/A   Clear
10:54 AM 37.4 °F 26.9 °F 24.8 °F 60% 30.01 in 10.0 mi South 20.7 mph - N/A   Clear
11:14 AM 37.4 °F 28.9 °F 26.6 °F 65% 30.02 in 10.0 mi South 13.8 mph - N/A   Clear
11:34 AM 37.4 °F 28.9 °F 26.6 °F 65% 29.99 in 10.0 mi SSE 13.8 mph - N/A   Clear
11:54 AM 37.4 °F 28.2 °F 24.8 °F 60% 29.97 in 10.0 mi SSE 16.1 mph - N/A   Clear
12:14 PM 37.4 °F 27.5 °F 24.8 °F 60% 29.95 in 10.0 mi SSE 18.4 mph - N/A   Clear
12:34 PM 37.4 °F 28.2 °F 24.8 °F 60% 29.93 in 10.0 mi South 16.1 mph - N/A   Clear
12:54 PM 37.4 °F 28.5 °F 24.8 °F 60% 29.91 in 10.0 mi SSE 15.0 mph 18.4 mph N/A   Clear
1:14 PM 37.4 °F 28.5 °F 24.8 °F 60% 29.89 in 10.0 mi SE 15.0 mph - N/A   Clear
1:34 PM 35.6 °F 26.2 °F 26.6 °F 70% 29.87 in 10.0 mi SE 15.0 mph - N/A   Clear
1:54 PM 35.6 °F 25.9 °F 26.6 °F 70% 29.88 in 10.0 mi SE 16.1 mph - N/A   Clear
2:14 PM 35.6 °F 27.1 °F 26.6 °F 70% 29.88 in 10.0 mi SSE 12.7 mph - N/A   Clear
2:34 PM 35.6 °F 27.1 °F 26.6 °F 70% 29.88 in 10.0 mi SSE 12.7 mph - N/A   Scattered Clouds
2:54 PM 37.4 °F 28.9 °F 26.6 °F 65% 29.87 in 10.0 mi SSE 13.8 mph - N/A   Overcast
3:14 PM 35.6 °F 26.2 °F 28.4 °F 75% 29.86 in 7.0 mi SSE 15.0 mph - N/A Rain Rain
3:34 PM 35.6 °F 26.2 °F 30.2 °F 81% 29.85 in 2.5 mi SSE 15.0 mph - 0.04 in   Overcast
3:54 PM 33.8 °F 25.3 °F 33.8 °F 100% 29.84 in 2.0 mi SSE 11.5 mph - 0.10 in Rain Light Rain
4:14 PM 33.8 °F 23.9 °F 33.8 °F 100% 29.83 in 5.0 mi SSE 15.0 mph - 0.02 in Rain Light Rain
4:34 PM 33.8 °F 23.5 °F 33.8 °F 100% 29.81 in 5.0 mi SSE 16.1 mph - 0.04 in Rain Light Rain
4:54 PM 33.8 °F 24.3 °F 33.8 °F 100% 29.80 in 7.0 mi SE 13.8 mph - 0.05 in Rain Light Rain
5:14 PM 33.8 °F 23.5 °F 32.0 °F 93% 29.79 in 7.0 mi SE 16.1 mph 20.7 mph 0.01 in Rain Rain
5:34 PM 33.8 °F 23.2 °F 32.0 °F 93% 29.77 in 7.0 mi SE 17.3 mph - 0.03 in   Overcast
5:54 PM 33.8 °F 22.2 °F 32.0 °F 93% 29.76 in 7.0 mi SE 20.7 mph - 0.04 in   Overcast
6:14 PM 33.8 °F 22.5 °F 32.0 °F 93% 29.75 in 10.0 mi SE 19.6 mph - 0.01 in Snow Light Snow
6:34 PM 33.8 °F 22.2 °F 32.0 °F 93% 29.73 in 5.0 mi SE 20.7 mph 26.5 mph 0.03 in   Overcast
6:54 PM 33.8 °F 22.2 °F 32.0 °F 93% 29.72 in 5.0 mi SE 20.7 mph - 0.04 in Snow Light Snow
7:13 PM 33.8 °F 22.8 °F 32.0 °F 93% 29.72 in 5.0 mi SE 18.4 mph - 0.01 in   Overcast
7:34 PM 33.8 °F 22.2 °F 32.0 °F 93% 29.71 in 4.0 mi SSE 20.7 mph 26.5 mph 0.03 in   Overcast
7:54 PM 33.8 °F 22.5 °F 32.0 °F 93% 29.70 in 5.0 mi SSE 19.6 mph - 0.05 in   Overcast
8:13 PM 33.8 °F 23.2 °F 32.0 °F 93% 29.70 in 5.0 mi SSE 17.3 mph - N/A   Overcast
8:34 PM 33.8 °F 22.5 °F 32.0 °F 93% 29.68 in 10.0 mi SSE 19.6 mph - N/A   Mostly Cloudy
8:54 PM 33.8 °F 23.2 °F 32.0 °F 93% 29.67 in 3.0 mi SSE 17.3 mph - N/A   Mostly Cloudy
9:13 PM 33.8 °F 23.5 °F 32.0 °F 93% 29.67 in 4.0 mi SSE 16.1 mph - N/A   Mostly Cloudy
9:34 PM 33.8 °F 23.2 °F 32.0 °F 93% 29.65 in 2.0 mi SSE 17.3 mph - N/A   Mostly Cloudy
9:54 PM 33.8 °F 23.5 °F 32.0 °F 93% 29.64 in 1.8 mi SSE 16.1 mph - N/A   Overcast
10:13 PM 33.8 °F 22.8 °F 32.0 °F 93% 29.62 in 1.5 mi SSE 18.4 mph - N/A   Overcast
10:34 PM 33.8 °F 23.5 °F 32.0 °F 93% 29.61 in 1.2 mi SSE 16.1 mph - N/A   Overcast
10:54 PM 33.8 °F 23.9 °F 33.8 °F 100% 29.61 in 1.8 mi SSE 15.0 mph - N/A   Overcast
11:13 PM 33.8 °F 24.3 °F 33.8 °F 100% 29.60 in 1.5 mi SSE 13.8 mph - N/A   Light Drizzle
11:34 PM 33.8 °F 23.9 °F 33.8 °F 100% 29.59 in 2.0 mi SSE 15.0 mph - N/A   Drizzle
11:54 PM 33.8 °F 23.5 °F 33.8 °F 100% 29.57 in 2.5 mi SE 16.1 mph - N/A   Scattered Clouds